NATIONAL KEY DEER NWR FL US current weather conditions

sailwx.info

Wind from 114 at 6 knots gusting 13

Air temperature 27.8° C
Dewpoint 22.5° C

Last reported at 2015-May-26 00:38 UTC.
Time now 2015-May-26 01:38 UTC

Location: N 24°43' W 081°23'.
View on Google Maps.

See reports from other nearby stations

  
Tides and Currents Weather Stations Pressure Air Temp Water Temp Dewpoint Dewpoint Depression Visibility Wind Speed Wind Dir Waves Ship Positions
date/time (UTC)wind fromknots sea level pressurealtimeterstation pressurevisibilityair tempwater tempwave heightnotes
2015-May-26 00:38 114 6 gusting 13 27.8
2015-May-25 23:38 115 6 gusting 14 28.9
2015-May-25 22:38 112 6 gusting 14 30.0
2015-May-25 21:38 111 6 gusting 14 31.1
2015-May-25 20:38 109 6 gusting 17 30.6
2015-May-25 19:38 113 6 gusting 14 31.7
2015-May-25 18:38 101 7 gusting 14 31.7
2015-May-25 17:38 106 6 gusting 14 31.1
2015-May-25 16:38 108 6 gusting 14 31.7
2015-May-25 15:38 109 6 gusting 13 31.1
2015-May-25 14:38 107 6 gusting 13 30.0
2015-May-25 13:38 109 6 gusting 13 30.6
2015-May-25 12:38 108 6 gusting 13 29.4
2015-May-25 11:38 113 5 gusting 12 27.8
2015-May-25 10:38 103 5 gusting 13 27.2
2015-May-25 09:38 103 6 gusting 15 27.2
2015-May-25 08:38 092 6 gusting 13 27.2
2015-May-25 07:38 110 5 gusting 14 26.7
2015-May-25 06:38 100 6 gusting 14 27.2
2015-May-25 05:38 097 7 gusting 16 27.2
2015-May-25 04:38 097 6 gusting 16 26.7
2015-May-25 03:38 096 8 gusting 17 27.8
2015-May-25 02:38 089 8 gusting 14 27.8
2015-May-25 01:38 099 7 gusting 15 27.8
2015-May-25 00:38 093 6 gusting 13 27.8
2015-May-24 23:38 094 8 gusting 14 28.9
2015-May-24 22:38 099 6 gusting 13 30.0
2015-May-24 21:38 097 7 gusting 14 31.1
2015-May-24 20:38 099 6 gusting 13 31.1
2015-May-24 19:38 099 6 gusting 13 30.0
2015-May-24 18:38 109 6 gusting 13 31.7
2015-May-24 17:38 114 6 gusting 13 31.7
2015-May-24 16:38 109 6 gusting 13 31.7
2015-May-24 15:38 113 6 gusting 12 31.7
2015-May-24 14:38 106 6 gusting 13 31.1
2015-May-24 13:38 098 6 gusting 12 30.6
2015-May-24 12:38 102 5 gusting 13 30.0
2015-May-24 11:38 096 5 gusting 13 27.8
2015-May-24 10:38 096 6 gusting 14 27.2
2015-May-24 09:38 098 5 gusting 14 27.2
2015-May-24 08:38 104 6 gusting 16 27.2
2015-May-24 07:38 099 6 gusting 14 27.2
2015-May-24 06:38 096 6 gusting 13 27.2
2015-May-24 05:38 104 6 gusting 15 27.8
2015-May-24 04:38 094 8 gusting 17 27.8
2015-May-24 03:38 090 9 gusting 18 28.3
2015-May-24 02:38 091 9 gusting 19 28.3
2015-May-24 01:38 093 9 gusting 16 28.3